Etusivu
METAR-TAF:

METAR-TAF

Lentoasemat :

Richard B. Russell Airport

Rome, Georgia, Yhdysvallat

Leveyspiiri: 34-20-52N, Pituuspiiri: 085-09-40W, korkeus merenpinnasta: 194 m

Tämänhetkinen sää

Tämä raportti tehtiin 9 minuuttia sitten, kello 12.53 UTC
tyyntä
Lämpötila 23°C
Kosteus 78%
Ilmanpaine 1019 hPa
Näkyvyys: 16.1 km
selkeää

METAR: KRMG 271253Z AUTO 00000KT 10SM CLR 23/19 A3010 RMK AO2 SLP182 T02330189 $

Aika: 09:02 (13:02 UTC)


TAF: puuttuu

Säähavainnot ja -ennusteet yli 4000 lentoasemalta (METAR- ja TAF-raportit).

Käytössä olevat sääasemat on merkitty karttaan keltaisilla ja punaisilla pisteillä.

Aseta hiiri pisteen päälle nähdäksesi sääaseman nimen.

Klikkaa sitten nähdäksesi säähavainnot ja -ennusteet.

Kartan vaihtaminen: klikkaa mustalla rastilla varustettuja vihreitä pisteitä, niin voit zoomata sisään; viivalla varustettua vihreää pistettä, niin voit zoomata ulos tai vihreitä nuolia, niin pääset viereisille kartoille.


METAR-TAF: